896  
ASUS42 KTAE 131417  
RWRTAE  
RWRTAE  
NORTH FLORIDA/SOUTH ALABAMA/SOUTHWEST GEORGIA WEATHER ROUNDUP  
NATIONAL WEATHER SERVICE TALLAHASSEE FLORIDA  
1000 AM EDT MON JUL 13 2020  
 
NOTE: "FAIR" INDICATES FEW OR NO CLOUDS BELOW 12,000 FEET WITH NO  
SIGNIFICANT WEATHER AND/OR S TO VISIBILITY
.  
 
!FLZ017-115-028-034-025-131500   
..NORTH FLORIDA
 
 
 
CITY SKY/WX TMP DP RH WIND PRES REMARKS
 
TALL INTL ARPT MOSUNNY 82 70 66 W7 29.94R  
FSU LOVE BLDG N/A N/A N/A N/A MISG N/A  
APALACHICOLA LGT RAIN 79 78 97 NW3 29.95R FOG  
PERRY NOT AVBL  
CROSS CITY PTSUNNY 84 75 74 W5 29.94S HX 92  
JACKSONVILLE CLOUDY 80 72 76 SW8 29.92R  

 
 
!FLZ112-006-005-002-011-131500   
..FLORIDA PANHANDLE
 
 
 
CITY SKY/WX TMP DP RH WIND PRES REMARKS
 
MARIANNA MOSUNNY 80 71 74 NW6 29.94R  
BONIFAY FAIR 82 73 74 VRB3 29.95R  
PANAMA CITY NW PTSUNNY 81 73 76 W3 29.94R  
TYNDALL AFB PTSUNNY 81 75 83 CALM 29.95  
TYND DRONE APT RAIN 81 75 83 N3 29.96R  
DE FUNIAK SPR FAIR 80 73 79 CALM 29.96S  
EGLIN AFB PTSUNNY 82 74 78 CALM 29.93  
DESTIN PTSUNNY 83 74 74 N5 29.94R  
HURLBURT PTSUNNY 82 75 79 NW3 29.92R  
CRESTVIEW CLOUDY 81 73 76 NW3 29.95R  
PENSACOLA PTSUNNY 83 76 79 W9 29.92S HX 91  

 
 
!ALZ063-066-131500   
..SOUTH ALABAMA
 
 
 
CITY SKY/WX TMP DP RH WIND PRES REMARKS
 
DOTHAN MOSUNNY 79 72 79 NW7 29.98R  
OZARK CAIRNS N/A 81 73 78 NW6 29.95  
FT RUCKER HELI SUNNY 79 72 79 NW6 29.94R  
RUCKER HELI 3 FAIR 78 72 80 N7 29.94R  
RUCKER HELI 2 FAIR 78 72 82 NW5 29.93R  
FLORALA APT NOT AVBL  
ANDALUSIA SUNNY 84 72 67 W7 29.94  
TROY NOT AVBL  
EUFALA NOT AVBL  
MOBILE CLOUDY 80 76 87 CALM 29.93F  

 
 
!GAZ120>161-131500   
..SOUTHWEST AND SOUTH CENTRAL GEORGIA
 
 
 
CITY SKY/WX TMP DP RH WIND PRES REMARKS
 
THOMASVILLE FAIR 81 70 69 NW8 29.95S  
BAINBRIDGE SUNNY 80 72 75 NW6 29.95R  
MOODY AFB PTSUNNY 80 71 72 CALM 29.92  
VALDOSTA MOSUNNY 82 70 66 CALM 29.93R  
MOULTRIE SUNNY 77 70 78 W6 29.95R  
BLAKELY SUNNY 73 64 73 W6 29.95R  
ALBANY MOSUNNY 80 71 74 W8 29.95R  
TIFTON FAIR 80 71 74 W7 29.92  
FITZGERALD FAIR 82 72 71 NW7 29.94S  
CORDELE FAIR 78 70 75 NW3 29.94R  
AMERICUS FAIR 79 70 73 NW7 29.96R  
HOMERVILLE PTSUNNY N/A N/A N/A W5 29.92S  

 
 
!GMZ750-755-770-775-131500   
..COASTAL AND BUOY OBS
 
 
 
STATION/POSITION TIME TEMP WIND PRES VSBY WAVE
 
AIR SEA DIR/SP/G HT/PER  
(UTC) (F) (DEG/KT/KT) (MB) (MI) (FT/S)  
KEATON BEACH 1400 82 320/ 4/ 6 1014.3R  
CEDAR KEY 1400 85 260/ 6/ 8 1014.3R  
C TOWER 1400 80 340/ 9/ 10 1014.6R  
APALACHICOLA BUO 1350 230/ 8/ 10 1014.7R 2/ 5  
PANAMA CITY BUOY 1400 290/ 12/ 14 1014.4  
MOBILE BUOY 1400 85 260/ 14/ 16 1014.7  
ORANGE BCH AL BU 1400 83 250/ 14/ 16 1013.6  

 
 
 
CLICK HERE TO GO TO PREVIOUS BULLETINS.

The Nexlab FL Page
The Nexlab GA Page
The Nexlab AL Page Main Text Page